Other Surface Observations
Issued by NWS Missoula, MT

Home | Current Version | Previous Version | Text Only | Print | Product List | Glossary On
Versions: 1 2 3 4 5 6 7 8 9 10 11 12 13 14 15 16 17 18 19 20 21 22 23 24 25 26 27 28 29 30 31 32 33 34 35 36 37 38 39 40 41 42 43 44 45 46 47 48 49 50
470
SXUS55 KMSO 291503
OSOMSO
MONTANA AWOS SUMMARY
NATIONAL WEATHER SERVICE MISSOULA MT
802 AM MST FRI APR 29 2016

Montana AWOS Reports

LAUREL      |K6S8 291455Z AUTO 00000KT 15SM 03/M02 A3001 RMK AO1 T00281016
TWIN BRIDGES|K7S1 291455Z AUTO 34013KT 40SM 04/M04 A2992 RMK AO1 T00441043




USA.gov is the U.S. government's official web portal to all federal, state and local government web resources and services.